Regional Weather Roundup
Issued by NWS San Diego, CA

Home | Current Version | Previous Version | Text Only | Print | Product List | Glossary On
Versions: 1 2 3 4 5 6 7 8 9 10 11 12 13 14 15 16 17 18 19 20 21 22 23 24 25 26 27 28 29 30 31 32 33 34 35 36 37 38 39 40 41 42 43 44 45 46 47 48 49 50
000
ASUS46 KSGX 291711
RWRSGX

SAN DIEGO HOURLY WEATHER ROUNDUP
NATIONAL WEATHER SERVICE SAN DIEGO CA
1000 AM PDT SUN MAR 29 2015

NOTE: "FAIR" INDICATES FEW OR NO CLOUDS BELOW 12,000 FEET WITH NO
SIGNIFICANT WEATHER AND/OR OBSTRUCTIONS TO VISIBILITY.

CAZ042-043-060-061-PZZ750-775-291800-

GREATER SAN DIEGO AREA

CITY           SKY/WX    TMP DP  RH WIND       PRES   REMARKS
LINDBERGH FLD  PTSUNNY   67  56  67 SW3       30.06S
POINT LOMA       N/A     66  57  72 E3          N/A
CHULA VISTA      N/A     70  60  70 CALM      29.98S
IMPERIAL BEACH MOSUNNY   74  56  53 VRB5      30.05S
BROWN FIELD    MOSUNNY   72  51  47 SE3       30.05S
MIRAMAR MCAS   PTSUNNY   72  50  45 CALM      30.05R
MONTGOMERY FLD MOSUNNY   69  51  52 CALM      30.05S

$$

NORTH SAN DIEGO COUNTY

CITY           SKY/WX    TMP DP  RH WIND       PRES   REMARKS
CAMP PENDLETON MOSUNNY   71  47  42 CALM      30.04F
OCEANSIDE AP   SUNNY     69  46  43 SE3       30.04S
VISTA            N/A     69  53  55 CALM      30.03S
CARLSBAD       SUNNY     68  50  52 CALM      30.04R
FALLBROOK        N/A     72  51  47 CALM      30.04S
SAN MARCOS       N/A     71  47  41 CALM      30.02S
POWAY            N/A     71  55  55 CALM      30.06S

$$

EAST SAN DIEGO COUNTY

CITY           SKY/WX    TMP DP  RH WIND       PRES   REMARKS
RAMONA         MOSUNNY   74  31  20 CALM      30.07R
SANTEE LAKES     N/A     68  52  55 CALM      30.05S
LA MESA          N/A     69  52  54 CALM      29.98S
DESCANSO N       N/A     72  31  22 CALM      29.94S
MT. LAGUNA OBS   N/A     65   9  11 W5        29.80R
CAMPO            N/A     71  31  22 CALM      30.08S

$$

ORANGE COUNTY AND THE LOS ANGELES BASIN

CITY           SKY/WX    TMP DP  RH WIND       PRES   REMARKS
JOHN WAYNE AP  MOSUNNY   66  54  65 CALM      30.05S
LAKE FOREST FR   N/A     67  53  59 CALM      29.95R
SANTA ANA        N/A     66  58  75 CALM      30.00S
HUNTINGTON BCH   N/A     70  60  70 CALM      30.07S
FULLERTON      SUNNY     71  54  54 E6        30.04S
LONG BEACH     SUNNY     67  56  67 SE3       30.05S
L.A. AP        PTSUNNY   63  57  81 CALM      30.06S HAZE
L.A. DOWNTOWN  SUNNY     68  56  65 CALM      30.05R HAZE

$$

THE INLAND EMPIRE

CITY           SKY/WX    TMP DP  RH WIND       PRES   REMARKS
CORONA         SUNNY     70  49  47 CALM      30.07F
CHINO          MOSUNNY   70  49  47 CALM      30.08S
ONTARIO        PTSUNNY   69  43  38 CALM      30.07S
SAN BERNARDINO PTSUNNY   72  27  18 CALM      30.08S
RIVERSIDE AP   PTSUNNY   71  40  32 VRB3      30.07S
HORSETHIEF CYN   N/A     71  38  30 CALM      30.02S
MENIFEE          N/A     69  43  40 SW1       30.13S
HEMET EAST       N/A     70  27  20 CALM      30.04S
FRENCH VALLEY  FAIR      70  36  28 N5        30.08S
TEMECULA         N/A     64  46  51 W1        30.04F

$$

SAN BERNARDINO AND RIVERSIDE COUNTY MOUNTAINS

CITY           SKY/WX    TMP DP  RH WIND       PRES   REMARKS
BIG BEAR AP    SUNNY     59  14  17 CALM      30.31S
ANGELUS OAKS     N/A     48  24  39 CALM      29.98S

$$

SOUTHERN DESERT INCLUDING THE COACHELLA VALLEY

CITY           SKY/WX    TMP DP  RH WIND       PRES   REMARKS
PALM SPRINGS   SUNNY     84  20   9 CALM      30.01R
THOUSAND PALMS   N/A     85  30  14 W9        29.97S
THERMAL        MOSUNNY   86  29  12 NW9       29.96R
BLYTHE         MOSUNNY   80  30  16 SW9       30.01R
IMPERIAL AP    MOSUNNY   85  28  12 VRB3      29.98R
EL CENTRO NAS  PTSUNNY   85  24  11 N6        29.98R
YUMA AZ        PTSUNNY   81  34  18 S5        30.00R
MEXICALI       PTSUNNY   81  32  17 E3        29.99R

$$

UPPER DESERT

CITY           SKY/WX    TMP DP  RH WIND       PRES   REMARKS
VICTORVILLE AP SUNNY     68  27  21 S3        30.15R
HESPERIA         N/A     70  31  23 SW2       30.18F
PALMDALE       SUNNY     71  32  23 N5        30.13S
LANCASTER      SUNNY     69  28  21 SE5       30.13S
EDWARDS AFB    MOSUNNY   63  36  36 N5        30.12R
DAGGETT        SUNNY     71  32  23 W13       30.11S
29 PALMS N     SUNNY     73  24  16 NW5       30.16S
NEEDLES        PTSUNNY   75  25  15 CALM      30.05R

$$

REGIONAL REPORTS

CITY           SKY/WX    TMP DP  RH WIND       PRES   REMARKS
SANTA BARBARA  MOSUNNY   61  57  87 SE7       30.06R
SANDBERG       SUNNY     66  36  32 N6        30.20R
MT. WILSON       N/A     72  19  14 E2          N/A
LAS VEGAS NV   PTSUNNY   76  18  11 S6        30.09R
PHOENIX AZ     PTSUNNY   80  25  13 E7        30.05R
TIJUANA        PTSUNNY   68  52  56 E5        30.07S
ENSENADA NW      N/A     65  32  28 W3        30.02S

$$

OFFSHORE ISLANDS

CITY           SKY/WX    TMP DP  RH WIND       PRES   REMARKS
CATALINA ARPT  SUNNY     67  51  56 W5        30.09R
SAN NICOLAS IS SUNNY    N/A N/A N/A S8        30.06R

$$

MARINE AND OFFSHORE BUOY REPORTS

STATION/POSITION SKY/WX   TEMP    WIND        PRES    SWELL
                          AIR SEA DIR/SP/G            HT/PER/DIR
                          (F)     (DEG/KT/KT) (MB)    (FT/S/D)
TANNER BANKS               60 61  300/  6/  8 1018.1R   8/320/ 9
S CLEMENTE BASIN           61 65  350/  2/  4 1018.0R   7/190/17
SAN NICOLAS IS.               59                N/A     7/190/18
SO. S. ROSA ISLA           59 60   40/  6/ 10 1017.4R   8/10
W. S. BARBARA CH           58 59   20/  4/  8 1017.6R   8/300/10
S. MONICA BASIN            59 63  120/  6/ 10 1018.1R   3/190/16
S PEDRO CHANNEL               63                N/A     3/280/12
DANA POINT                    64                N/A     5/180/18
CMP PENDLETON NS              66                N/A     3/210/18
OCEANSIDE OFFSHR              66                N/A     3/180/18
TORREY PINES OTR              66                N/A     5/200/17
LA JOLLA 1                 65 65   CALM  /  2 1017.3F
MISSION BAY BUOY              66                N/A     5/200/17
SAN DIEGO BAY                 69              1017.8F
POINT LOMA SOUTH              67                N/A     5/170/18

$$



USA.gov is the U.S. government's official web portal to all federal, state and local government web resources and services.